[[{"header":{"parameterUnit":"m.s-1","parameterCategory":1,"la1":30.2991,"la2":30.254,"lo1":-89.0895,"lo2":-89.0444,"dy":0.0017,"dx":0.0017,"nx":28,"ny":28,"refTime":"2025-03-27T21:00:00:Z","depth":0,"parameterNumber":2,"parameterNumberName":"U-component_of_WINDS"},"data":[0,0,0,0,0,0,0,0,0,0,0,0,0,0,0,0,0,0,0,0,0,0,0,0,0,0,0,0,0,0,0,0,0,0,0,0,0,0,0,0,0,0,0,0,0,0,0,0,0,0,0,0,0,0,0,0,0,0,-4.0186,-4.0187,0,-4.0202,-4.0202,-4.0202,-4.0119,-4.0117,-4.0114,-4.0112,-4.0127,-4.0129,-4.0132,0,0,0,0,0,0,0,0,0,0,0,0,0,-4.0085,-4.0088,-4.0186,-4.0187,-4.0187,-4.0202,-4.0202,-4.0202,-4.0119,-4.0116,-4.0114,-4.0111,-4.0126,-4.0129,-4.0132,0,0,0,0,0,0,0,0,0,0,0,0,0,-4.0118,-4.0089,-4.0186,-4.0147,-4.0144,-4.0202,-4.0202,-4.0202,-4.012,-4.0116,-4.0113,-4.0109,-4.0125,-4.0129,-4.0133,-4.0229,0,0,-4.0145,-4.0146,0,0,0,0,0,0,0,0,-4.0116,-4.0122,-4.0153,-4.015,-4.0146,-4.0155,-4.0172,-4.0211,-4.0121,-4.0129,-4.0112,-4.0108,-4.0139,-4.0142,-4.0152,-4.0229,-4.023,-4.0145,-4.0147,-4.0149,-4.015,0,0,0,0,0,0,0,-4.0114,-4.0121,-4.0192,-4.0153,-4.015,-4.0129,-4.013,-4.0179,-4.0154,-4.0128,-4.0122,-4.0125,-4.0137,-4.0149,-4.0152,-4.023,-4.0145,-4.0148,-4.0151,-4.0152,-4.0388,-4.0391,0,0,0,0,0,0,-4.0117,-4.0119,-4.0192,-4.0193,-4.0122,-4.0134,-4.0135,-4.0156,-4.0153,-4.0149,-4.0128,-4.0121,-4.0144,-4.0148,-4.0152,-4.0264,-4.0149,-4.0153,-4.0155,-4.0384,-4.0388,-4.0393,0,0,0,0,0,0,-4.0115,-4.0124,-4.0191,-4.0155,-4.0162,-4.0139,-4.0164,-4.0158,-4.017,-4.0153,-4.0148,-4.0145,-4.0141,-4.0147,-4.021,-4.0263,-4.0155,-4.0158,-4.0379,-4.0385,-4.0391,-4.0489,0,0,0,0,0,0,-4.0113,-4.0124,-4.016,-4.0156,-4.0164,-4.0249,-4.0167,-4.0161,-4.0177,-4.0168,-4.0168,-4.0164,-4.0139,-4.0205,-4.0214,-4.0267,-4.0161,-4.0374,-4.0382,-4.0389,-4.0481,-4.0498,-4.0512,0,0,0,0,0,-4.0109,-4.0187,-4.0162,-4.0172,-4.0208,-4.0253,-4.0257,-4.0226,-4.0182,-4.0218,-4.0207,-4.0164,-4.0257,-4.0212,-4.0222,-4.0277,-4.0371,-4.038,-4.0388,-4.0474,-4.0494,-4.0511,0,0,0,0,0,0,-4.0197,-4.0185,-4.0158,-4.0237,-4.0246,-4.0238,-4.0282,-4.0249,-4.0271,-4.0261,-4.0222,-4.0223,-4.0293,-4.0292,-4.0242,-4.037,-4.0306,-4.0317,-4.0368,-4.0387,-4.0402,-4.04,-4.0164,0,0,0,0,0,-4.0225,-4.0262,-4.0251,-4.0321,-4.0327,-4.0305,-4.0323,-4.0299,-4.0307,-4.031,-4.0304,-4.0314,-4.0345,-4.0366,-4.0394,-4.0481,-4.048,-4.0524,-4.0539,-4.0552,-4.0561,-4.0608,-4.0627,-4.0421,-4.0421,-4.0421,0,0,-4.0284,-4.0283,-4.0308,-4.0339,-4.0343,-4.0382,-4.0308,-4.0353,-4.0381,-4.0317,-4.0376,-4.0373,-4.0381,-4.0458,-4.0491,-4.0458,-4.0619,-4.0563,-4.0574,-4.0576,-4.0619,-4.0638,-4.0656,-4.0427,-4.0426,-4.0425,0,0,-4.0411,-4.0414,-4.0473,-4.048,-4.0488,-4.0473,-4.0488,-4.0486,-4.0481,-4.0541,-4.0493,-4.0528,-4.0582,-4.059,-4.0601,-4.0735,-4.0696,-4.0745,-4.0825,-4.087,-4.0886,-4.0901,-4.0947,-4.0965,-4.0755,-4.0755,-4.0755,0,-4.0483,-4.054,-4.0508,-4.0556,-4.057,-4.0516,-4.0575,-4.0583,-4.06,-4.0612,-4.0576,-4.0644,-4.0646,-4.0723,-4.0756,-4.0767,-4.0782,-4.0743,-4.0887,-4.0901,-4.0913,-4.0958,-4.0975,-4.0761,-4.076,-4.076,-4.0759,0,-4.0628,-4.0668,-4.0715,-4.0734,-4.0754,-4.0808,-4.0784,-4.0809,-4.0784,-4.0773,-4.0835,-4.0836,-4.0863,-4.088,-4.0856,-4.0955,-4.0934,-4.0894,-4.0828,-4.0939,-4.098,-4.0997,-4.0769,-4.0767,-4.0766,-4.0764,0,0,-4.0806,-4.0809,-4.0826,-4.0835,-4.0841,-4.0872,-4.0924,-4.0952,-4.0973,-4.0988,-4.103,-4.108,-4.1042,-4.1055,-4.1032,-4.1072,-4.1178,-4.1026,-4.1026,-4.1053,-4.1286,-4.1316,-4.1336,-4.1153,-4.1156,-4.1159,-4.1285,0,-4.093,-4.1018,-4.0992,-4.108,-4.1118,-4.1068,-4.1113,-4.1123,-4.1115,-4.1145,-4.1136,-4.1171,-4.112,-4.1127,-4.1165,-4.1157,-4.1223,-4.1148,-4.1191,-4.1193,-4.1189,-4.1357,-4.1388,-4.1507,-4.1301,-4.1304,-4.1306,0,-4.1084,-4.1106,-4.1199,-4.1201,-4.1215,-4.1256,-4.128,-4.131,-4.1321,-4.1312,-4.1328,-4.1297,-4.1349,-4.1286,-4.1356,-4.1305,-4.1322,-4.1321,-4.1325,-4.1326,-4.1255,-4.1361,-4.1544,-4.1561,-4.1331,-4.1329,-4.1327,0,-4.1204,-4.1257,-4.1319,-4.1328,-4.1332,-4.1362,-4.1365,-4.1372,-4.1391,-4.1412,-4.1424,-4.1451,-4.1465,-4.1487,-4.1465,-4.1421,-4.1539,-4.1473,-4.1532,-4.1533,-4.1557,-4.1555,-4.1743,-4.1572,-4.1572,-4.1571,-4.1571,0,-4.1343,-4.1401,-4.1373,-4.1411,-4.1476,-4.1446,-4.1511,-4.1508,-4.1515,-4.1552,-4.1512,-4.1547,-4.1516,-4.1549,-4.1532,-4.1593,-4.16,-4.1595,-4.1589,-4.1597,-4.1598,-4.1606,-4.1596,-4.1576,-4.1575,-4.1574,-4.1573,0,-4.1486,-4.147,-4.1534,-4.1534,-4.1535,-4.1583,-4.1582,-4.1618,-4.1608,-4.1656,-4.1665,-4.165,-4.1687,-4.1668,-4.1706,-4.1694,-4.1773,-4.1757,-4.1769,-4.1764,-4.1824,-4.1818,-4.2022,-4.2047,-4.1861,-4.1863,-4.1864,0,-4.1575,-4.1619,-4.1624,-4.1646,-4.1652,-4.1688,-4.1708,-4.1681,-4.1703,-4.172,-4.1753,-4.1787,-4.1812,-4.1874,-4.1867,-4.1896,-4.1879,-4.1949,-4.1883,-4.1891,-4.1879,-4.1876,-4.188,-4.1961,-4.1964,-4.1965,-4.1967,0,-4.1733,-4.1724,-4.1753,-4.1781,-4.1806,-4.1826,-4.1843,-4.1863,-4.1838,-4.1864,-4.1902,-4.1922,-4.1962,-4.1996,-4.2022,-4.2026,-4.1992,-4.1988,-4.2003,-4.2011,-4.2015,-4.2012,-4.1803,-4.1983,-4.1981,-4.198,-4.1979,-4.1979,-4.1851,-4.1888,-4.1897,-4.1932,-4.1943,-4.196,-4.1994,-4.1989,-4.202,-4.2051,-4.2034,-4.2078,-4.2089,-4.2121,-4.2129,-4.2164,-4.2136,-4.2157,-4.2163,-4.2168,-4.2175,-4.2012,-4.2168,-4.2168,-4.2167,-4.2167,-4.2167,0,-4.2006,-4.2011,-4.2043,-4.2069,-4.2096,-4.2065,-4.2082,-4.2107,-4.2147,-4.216,-4.2187,-4.2231,-4.2265,-4.2261,-4.2292,-4.232,-4.2306,-4.2329,-4.2326,-4.2327,-4.2199,-4.2182,-4.234,-4.234,-4.234,-4.234,-4.234,-4.234,-4.209,-4.2151,-4.2143,-4.2209,-4.2213,-4.2257,-4.227,-4.2286,-4.2296,-4.2347,-4.2376,-4.2373,-4.238,-4.2412,-4.2441,-4.2439,-4.2452,-4.2481,-4.2473,-4.2353,-4.2336,-4.2319,-4.2303,-4.2484,-4.2484,-4.2598,-4.2599,-4.26]},{"header":{"parameterUnit":"m.s-1","parameterCategory":1,"la1":30.2991,"la2":30.254,"lo1":-89.0895,"lo2":-89.0444,"dy":0.0017,"dx":0.0017,"nx":28,"ny":28,"refTime":"2025-03-27T21:00:00:Z","depth":0,"parameterNumber":3,"parameterNumberName":"V-component_of_WINDS"},"data":[0,0,0,0,0,0,0,0,0,0,0,0,0,0,0,0,0,0,0,0,0,0,0,0,0,0,0,0,0,0,0,0,0,0,0,0,0,0,0,0,0,0,0,0,0,0,0,0,0,0,0,0,0,0,0,0,0,0,1.0497,1.0497,0,1.0521,1.0522,1.0522,1.0536,1.0536,1.0536,1.0536,1.0559,1.0559,1.056,0,0,0,0,0,0,0,0,0,0,0,0,0,1.0461,1.0461,1.0497,1.0497,1.0497,1.0521,1.0522,1.0522,1.0536,1.0536,1.0536,1.0536,1.0559,1.0559,1.056,0,0,0,0,0,0,0,0,0,0,0,0,0,1.048,1.0461,1.0497,1.0507,1.0508,1.0521,1.0522,1.0522,1.0536,1.0536,1.0536,1.0536,1.0558,1.0559,1.056,1.0564,0,0,1.0563,1.0563,0,0,0,0,0,0,0,0,1.0479,1.0481,1.0505,1.0506,1.0508,1.0526,1.0517,1.0536,1.0536,1.0525,1.0536,1.0536,1.0548,1.0549,1.0554,1.0565,1.0566,1.0563,1.0563,1.0564,1.0564,0,0,0,0,0,0,0,1.0477,1.048,1.0506,1.0506,1.0507,1.051,1.0513,1.0521,1.0536,1.0526,1.0527,1.053,1.0548,1.0553,1.0554,1.0566,1.0563,1.0563,1.0564,1.0564,1.0584,1.0584,0,0,0,0,0,0,1.0474,1.0479,1.0506,1.0507,1.0493,1.0511,1.0514,1.052,1.0536,1.0538,1.053,1.0531,1.0551,1.0553,1.0555,1.0562,1.0564,1.0564,1.0565,1.0584,1.0584,1.0584,0,0,0,0,0,0,1.0474,1.0477,1.0505,1.0493,1.0497,1.0512,1.0518,1.052,1.0525,1.0539,1.0541,1.0532,1.0552,1.0554,1.0562,1.0563,1.0565,1.0565,1.0584,1.0584,1.0584,1.0574,0,0,0,0,0,0,1.0473,1.0476,1.0478,1.0493,1.0498,1.0511,1.0518,1.0521,1.0527,1.0528,1.0541,1.0543,1.0552,1.0561,1.0563,1.0564,1.0566,1.0584,1.0584,1.0584,1.0575,1.0574,1.0573,0,0,0,0,0,1.0471,1.0473,1.0478,1.0481,1.05,1.0511,1.0514,1.0524,1.0527,1.0528,1.0538,1.0543,1.0563,1.0562,1.0564,1.0565,1.0583,1.0584,1.0584,1.0575,1.0574,1.0573,0,0,0,0,0,0,1.0455,1.0475,1.0481,1.0488,1.0498,1.0514,1.0516,1.0523,1.0531,1.0532,1.0544,1.0547,1.0554,1.056,1.0559,1.0571,1.0574,1.0574,1.0566,1.0566,1.0565,1.0563,1.0567,0,0,0,0,0,1.0453,1.0461,1.0478,1.0482,1.0487,1.0501,1.0506,1.0514,1.0524,1.0528,1.0538,1.0547,1.0556,1.0561,1.057,1.0576,1.058,1.0578,1.0578,1.0577,1.0577,1.0583,1.0583,1.0584,1.0584,1.0584,0,0,1.0448,1.0459,1.0463,1.0479,1.0488,1.0497,1.0504,1.0512,1.0518,1.0529,1.0538,1.0546,1.0557,1.0565,1.0569,1.0571,1.0578,1.0577,1.0577,1.0577,1.0583,1.0583,1.0583,1.0584,1.0584,1.0584,0,0,1.0442,1.0451,1.0457,1.0467,1.0481,1.049,1.0492,1.0507,1.0513,1.0523,1.0532,1.0539,1.0553,1.0562,1.0568,1.0569,1.0575,1.0571,1.0568,1.0573,1.0573,1.0573,1.0575,1.0575,1.0571,1.0571,1.0571,0,1.0433,1.0446,1.0459,1.0467,1.0475,1.0487,1.0493,1.0501,1.0517,1.0522,1.0524,1.0544,1.0552,1.0563,1.0564,1.0568,1.057,1.0569,1.0573,1.0573,1.0573,1.0574,1.0575,1.0571,1.0571,1.0571,1.0571,0,1.0435,1.0445,1.0448,1.0464,1.0472,1.0479,1.0493,1.0499,1.0507,1.0516,1.0527,1.0538,1.055,1.0553,1.0559,1.0565,1.0566,1.057,1.0573,1.0572,1.0574,1.0574,1.057,1.0571,1.0571,1.0571,0,0,1.0419,1.0445,1.0446,1.0454,1.0472,1.0479,1.0488,1.0501,1.0506,1.0517,1.0525,1.0538,1.0543,1.055,1.0558,1.0562,1.0564,1.0566,1.0567,1.0566,1.0573,1.057,1.0571,1.0569,1.0569,1.0569,1.0572,0,1.0416,1.0432,1.0446,1.0457,1.0466,1.0479,1.0487,1.0499,1.0508,1.0518,1.0528,1.0537,1.0542,1.0547,1.0552,1.0563,1.0566,1.0563,1.0576,1.0576,1.0573,1.0571,1.0568,1.057,1.0573,1.0573,1.0573,0,1.0415,1.0427,1.044,1.0459,1.0464,1.047,1.0485,1.0493,1.0507,1.0514,1.0524,1.0533,1.0542,1.0545,1.056,1.0557,1.0564,1.057,1.057,1.0572,1.0574,1.0573,1.0571,1.0572,1.0574,1.0574,1.0574,0,1.0403,1.0423,1.0433,1.044,1.0462,1.0467,1.0476,1.0491,1.0499,1.0511,1.0517,1.053,1.0537,1.0546,1.0559,1.056,1.0572,1.0576,1.0578,1.0578,1.058,1.058,1.058,1.0584,1.0584,1.0584,1.0584,0,1.0398,1.0406,1.0429,1.0435,1.0445,1.046,1.0469,1.0479,1.0492,1.0501,1.0513,1.0521,1.0537,1.0548,1.0557,1.0568,1.0571,1.0577,1.058,1.0576,1.0575,1.058,1.058,1.0584,1.0584,1.0584,1.0584,0,1.0386,1.0401,1.0414,1.0435,1.0441,1.0447,1.0465,1.0472,1.0483,1.0495,1.0498,1.0516,1.0529,1.0542,1.0559,1.0566,1.0577,1.058,1.0573,1.0574,1.0576,1.0576,1.0579,1.0581,1.0583,1.0583,1.0583,0,1.0382,1.0388,1.0411,1.0419,1.0428,1.044,1.0449,1.0465,1.0474,1.0492,1.0497,1.0512,1.0524,1.0544,1.0558,1.0572,1.0575,1.0576,1.0577,1.0575,1.0576,1.0576,1.0577,1.0575,1.0575,1.0575,1.0575,0,1.0374,1.0382,1.0395,1.0411,1.0422,1.0435,1.0449,1.0454,1.0473,1.0482,1.0497,1.0506,1.0525,1.054,1.0555,1.0565,1.0573,1.0575,1.0576,1.0572,1.0568,1.0571,1.0571,1.0574,1.0574,1.0574,1.0574,1.0574,1.0366,1.0374,1.0391,1.0406,1.0418,1.0431,1.044,1.0454,1.0466,1.0484,1.0492,1.0507,1.0523,1.0546,1.0555,1.0567,1.0569,1.0571,1.0571,1.0572,1.0571,1.0567,1.057,1.057,1.057,1.057,1.057,0,1.036,1.0373,1.0386,1.0406,1.0418,1.0426,1.0442,1.0451,1.0465,1.0479,1.0492,1.051,1.0524,1.054,1.0556,1.0563,1.0567,1.0566,1.0566,1.0568,1.0568,1.0566,1.0563,1.0563,1.0563,1.0563,1.0563,1.0563,1.0358,1.0371,1.0382,1.0402,1.0415,1.043,1.0439,1.0451,1.0464,1.0483,1.0496,1.0507,1.0523,1.054,1.0554,1.0559,1.0564,1.0562,1.0568,1.0567,1.0568,1.0568,1.0566,1.0563,1.0563,1.0567,1.0567,1.0567]}]]